Regional Weather Roundup
Issued by NWS

Home | Current Version | Previous Version | Graphics & Text | Print | Product List | Glossary On
Versions: 1 2 3 4 5 6 7 8 9 10 11 12 13 14 15 16 17 18 19 20 21 22 23 24 25 26 27
000
ASUS45 KSLC 191410
RWRUT

UTAH REGIONAL WEATHER ROUNDUP
NATIONAL WEATHER SERVICE SALT LAKE CITY UT
800 AM MDT SAT AUG 19 2017

UTZ001>011-023>025-191500-

NORTHERN UTAH

CITY           SKY/WX    TMP DP  RH WIND       PRES   REMARKS
BRIGHAM CITY   SUNNY     56  34  43 N3        30.09R
HILL AFB       SUNNY     62  32  32 E17       30.10R
LOGAN          SUNNY     52  44  74 CALM      30.12R
OGDEN          SUNNY     64  34  32 S6        30.08R
SALT LAKE CITY MOSUNNY   70  44  39 SE12      30.06S
TOOELE VALLEY  SUNNY     68  36  30 S13       30.08R
WENDOVER       MOSUNNY   67  36  31 CALM      30.07R
HEBER CITY     SUNNY     50  41  71 CALM      30.22R
WEST JORDAN    SUNNY     67  43  42 S7        30.10S

$$

UTZ011>015-024>027-191500-

CENTRAL/NORTHEAST UTAH

CITY           SKY/WX    TMP DP  RH WIND       PRES   REMARKS
PROVO AIRPORT  SUNNY     64  44  48 SE9       30.13R
MOAB/CANYONLAN MOSUNNY   70  34  26 SW5       30.08S
DELTA          PTSUNNY   64  34  32 SE5       30.12R
PRICE          MOSUNNY   68  38  33 CALM      30.20R
ROOSEVELT      SUNNY     59  39  47 CALM      30.19R
VERNAL         SUNNY     63  38  39 W3        30.17R

$$

UTZ013>016-019>022-027-191500-

SOUTHERN UTAH

CITY           SKY/WX    TMP DP  RH WIND       PRES   REMARKS
BRYCE CANYON   SUNNY     51  39  63 W6        30.35R
CEDAR CITY     SUNNY     63  43  48 CALM      30.18R
MILFORD        SUNNY     63  38  39 SW7       30.13R
ST GEORGE      SUNNY     73  43  33 S3        30.02R
HANKSVILLE     MOSUNNY   66  32  28 CALM      30.11R
BLANDING       SUNNY     67  37  32 SE3       30.28R

$$

REGIONAL REPORTS     COLORADO/ARIZONA

CITY           SKY/WX    TMP DP  RH WIND       PRES   REMARKS
CRAIG, CO      SUNNY     51  38  60 E3        30.25S
GRAND JUNCTION SUNNY     68  38  33 S7        30.14R
RIFLE, CO      SUNNY     58  35  42 CALM      30.22R
MONTROSE, CO   SUNNY     58  40  51 S7        30.22S
CORTEZ, CO     CLOUDY    55  38  52 E5        30.23R
COLORADO CITY    N/A     59  46  63 E6        30.17R
PAGE, AZ       SUNNY     78  39  24 SE3       30.08R
GRAND CANYON   SUNNY     51  35  54 CALM      30.29R
KINGMAN, AZ    SUNNY     72  39  30 SE7       30.05R
FLAGSTAFF, AZ  PTSUNNY   58  39  49 CALM      30.32R

$$

REGIONAL REPORTS    NEVADA/IDAHO/WYOMING

CITY           SKY/WX    TMP DP  RH WIND       PRES   REMARKS
LAS VEGAS, NV  MOSUNNY   82  40  22 W3        29.93R
ELY, NY        PTSUNNY   57  36  45 S7        30.23R
ELKO, NV       MOSUNNY   53  26  35 NE6       30.16R
POCATELLO, ID  SUNNY     51  33  50 CALM      30.10R
BURLEY, ID     SUNNY     57  39  51 SW7       30.07R
FORT BRIDGER,    N/A     65  24  21 W7        30.29S
EVANSTON, WY   CLOUDY    56  30  37 S5        30.28R
ROCK SPRINGS,  SUNNY     60  31  33 CALM      30.24R
KEMMERER, WY     N/A     52  32  46 N6        30.29R

$$




USA.gov is the U.S. government's official web portal to all federal, state and local government web resources and services.